• Em Portugal
  • Lista de países
  • Para 7 dias
  • Temperatura da água
  • Mapas de satélite
  • Mapa do tempo
  • Widgets de tempo
  • user-avatar
    Iniciar Sessão

    Previsão horária em Asadabad

    Hoje, 16 Julho, Segunda-feira

    Tempo Temperatura Precipitação Vento Pressão Humidade
    00:00 +28°C° 2,7 mm 1 m/s 652 mmHg 74%
    01:00 +28°C° 2,7 mm 1 m/s 652 mmHg 76%
    02:00 +27°C° 2,7 mm 1 m/s 652 mmHg 77%
    03:00 +27°C° 2,8 mm 1 m/s 652 mmHg 78%
    04:00 +26°C° 2,8 mm 1 m/s 652 mmHg 79%
    05:00 +26°C° 0 mm 1 m/s 652 mmHg 79%
    06:00 +27°C° 1,3 mm 1 m/s 652 mmHg 74%
    07:00 +28°C° 1,3 mm 1 m/s 653 mmHg 69%
    08:00 +29°C° 1,3 mm 1 m/s 653 mmHg 63%
    09:00 +30°C° 0,7 mm 2 m/s 653 mmHg 60%
    10:00 +31°C° 0,7 mm 2 m/s 653 mmHg 57%
    11:00 +33°C° 0 mm 3 m/s 654 mmHg 55%
    12:00 +34°C° 0,3 mm 3 m/s 653 mmHg 55%
    13:00 +34°C° 0,3 mm 3 m/s 653 mmHg 54%
    14:00 +34°C° 0,3 mm 4 m/s 653 mmHg 53%
    15:00 +34°C° 0,4 mm 3 m/s 652 mmHg 52%
    16:00 +34°C° 0,4 mm 3 m/s 652 mmHg 53%
    17:00 +34°C° 0,4 mm 3 m/s 652 mmHg 54%
    18:00 +33°C° 0,6 mm 3 m/s 652 mmHg 58%
    19:00 +31°C° 0,6 mm 2 m/s 652 mmHg 62%
    20:00 +30°C° 0,6 mm 2 m/s 652 mmHg 66%
    21:00 +30°C° 2,2 mm 2 m/s 652 mmHg 67%
    22:00 +29°C° 2,2 mm 1 m/s 652 mmHg 69%
    23:00 +29°C° 2,2 mm 1 m/s 652 mmHg 70%

    Amanhã, 17 Julho, Terça-feira

    Tempo Temperatura Precipitação Vento Pressão Humidade
    00:00 +28°C° 1,2 mm 1 m/s 652 mmHg 72%
    01:00 +28°C° 1,2 mm 1 m/s 652 mmHg 73%
    02:00 +25°C° 1,2 mm 0 m/s 652 mmHg 74%
    03:00 +27°C° 1,4 mm 1 m/s 652 mmHg 75%
    04:00 +27°C° 1,4 mm 1 m/s 652 mmHg 75%
    05:00 +26°C° 1,4 mm 1 m/s 652 mmHg 75%
    06:00 +27°C° 0,3 mm 1 m/s 652 mmHg 70%
    07:00 +29°C° 0,3 mm 1 m/s 653 mmHg 65%
    08:00 +30°C° 0,3 mm 1 m/s 653 mmHg 59%
    09:00 +31°C° 0,1 mm 2 m/s 653 mmHg 56%
    10:00 +32°C° 0,1 mm 2 m/s 653 mmHg 53%
    11:00 +34°C° 0,1 mm 2 m/s 653 mmHg 49%
    12:00 +35°C° 0,1 mm 3 m/s 653 mmHg 48%
    13:00 +35°C° 0,1 mm 3 m/s 653 mmHg 46%
    14:00 +36°C° 0,1 mm 3 m/s 653 mmHg 44%
    15:00 +36°C° 0,4 mm 3 m/s 653 mmHg 44%
    16:00 +36°C° 0,4 mm 3 m/s 652 mmHg 44%
    17:00 +36°C° 0,4 mm 3 m/s 652 mmHg 43%
    18:00 +35°C° 1,1 mm 3 m/s 652 mmHg 49%
    19:00 +32°C° 1,1 mm 2 m/s 652 mmHg 54%
    20:00 +31°C° 1,1 mm 2 m/s 652 mmHg 59%
    21:00 +30°C° 2,4 mm 2 m/s 652 mmHg 61%
    22:00 +30°C° 2,4 mm 1 m/s 652 mmHg 64%
    23:00 +29°C° 2,4 mm 1 m/s 653 mmHg 66%

    Depois de amanhã, 18 Julho, Quarta-feira

    Tempo Temperatura Precipitação Vento Pressão Humidade
    00:00 +29°C° 2 mm 1 m/s 652 mmHg 66%
    01:00 +28°C° 2 mm 1 m/s 652 mmHg 67%
    02:00 +28°C° 2 mm 1 m/s 652 mmHg 68%
    03:00 +27°C° 1,7 mm 1 m/s 652 mmHg 68%
    04:00 +27°C° 1,7 mm 1 m/s 652 mmHg 69%
    05:00 +26°C° 1,7 mm 1 m/s 652 mmHg 70%
    06:00 +28°C° 0,3 mm 1 m/s 653 mmHg 65%
    07:00 +29°C° 0,3 mm 1 m/s 653 mmHg 59%
    08:00 +30°C° 0,3 mm 1 m/s 653 mmHg 54%
    09:00 +31°C° 0,1 mm 1 m/s 653 mmHg 51%
    10:00 +32°C° 0,1 mm 2 m/s 654 mmHg 48%
    11:00 +35°C° 0,1 mm 3 m/s 654 mmHg 44%
    12:00 +35°C° 0 mm 3 m/s 653 mmHg 45%
    13:00 +35°C° 0 mm 3 m/s 653 mmHg 46%
    14:00 +36°C° 0 mm 4 m/s 653 mmHg 46%
    15:00 +36°C° 0,4 mm 4 m/s 653 mmHg 47%
    16:00 +35°C° 0,4 mm 4 m/s 653 mmHg 48%
    17:00 +35°C° 0,4 mm 4 m/s 652 mmHg 49%
    18:00 +34°C° 0,7 mm 3 m/s 653 mmHg 53%
    19:00 +33°C° 0,7 mm 3 m/s 653 mmHg 58%
    20:00 +31°C° 0,7 mm 2 m/s 653 mmHg 63%
    21:00 +30°C° 1,4 mm 2 m/s 653 mmHg 65%
    22:00 +29°C° 1,4 mm 2 m/s 653 mmHg 67%
    23:00 +29°C° 1,4 mm 1 m/s 653 mmHg 69%

    19 Julho, Quinta-feira

    Tempo Temperatura Precipitação Vento Pressão Humidade
    00:00 +28°C° 0,9 mm 1 m/s 653 mmHg 71%
    01:00 +28°C° 0,9 mm 1 m/s 652 mmHg 72%
    02:00 +27°C° 0,9 mm 1 m/s 652 mmHg 73%
    03:00 +27°C° 0,3 mm 1 m/s 652 mmHg 72%
    04:00 +27°C° 0,3 mm 1 m/s 652 mmHg 72%
    05:00 +26°C° 0,3 mm 1 m/s 652 mmHg 71%
    06:00 +27°C° 0,1 mm 1 m/s 652 mmHg 66%
    07:00 +29°C° 0,1 mm 1 m/s 652 mmHg 60%
    08:00 +30°C° 0,1 mm 1 m/s 653 mmHg 55%
    09:00 +31°C° 0 mm 1 m/s 653 mmHg 50%
    10:00 +34°C° 0 mm 2 m/s 653 mmHg 46%
    11:00 +35°C° 0 mm 3 m/s 653 mmHg 42%
    12:00 +35°C° 0 mm 3 m/s 653 mmHg 42%
    13:00 +36°C° 0 mm 3 m/s 653 mmHg 41%
    14:00 +37°C° 0 mm 3 m/s 653 mmHg 41%
    15:00 +36°C° 0 mm 4 m/s 652 mmHg 42%
    16:00 +36°C° 0 mm 4 m/s 652 mmHg 42%
    17:00 +36°C° 0 mm 4 m/s 652 mmHg 43%
    18:00 +35°C° 0,2 mm 3 m/s 652 mmHg 48%
    19:00 +32°C° 0,2 mm 2 m/s 652 mmHg 53%
    20:00 +31°C° 0,2 mm 2 m/s 652 mmHg 57%
    21:00 +31°C° 0,4 mm 2 m/s 652 mmHg 60%
    22:00 +30°C° 0,4 mm 1 m/s 652 mmHg 62%
    23:00 +29°C° 0,4 mm 1 m/s 652 mmHg 64%

    20 Julho, Sexta-feira

    Tempo Temperatura Precipitação Vento Pressão Humidade
    00:00 +29°C° 0,7 mm 1 m/s 652 mmHg 66%
    01:00 +28°C° 0,7 mm 1 m/s 652 mmHg 68%
    02:00 +28°C° 0,7 mm 1 m/s 651 mmHg 70%
    03:00 +27°C° 0,7 mm 1 m/s 651 mmHg 72%
    04:00 +27°C° 0,7 mm 1 m/s 651 mmHg 73%
    05:00 +26°C° 0,7 mm 1 m/s 651 mmHg 74%
    06:00 +27°C° 0,6 mm 1 m/s 651 mmHg 69%
    07:00 +29°C° 0,6 mm 1 m/s 651 mmHg 63%
    08:00 +30°C° 0,6 mm 1 m/s 652 mmHg 58%
    09:00 +31°C° 0,1 mm 2 m/s 652 mmHg 53%
    10:00 +32°C° 0,1 mm 2 m/s 652 mmHg 49%
    11:00 +35°C° 0,1 mm 2 m/s 652 mmHg 44%
    12:00 +35°C° 0 mm 3 m/s 652 mmHg 42%
    13:00 +36°C° 0 mm 3 m/s 652 mmHg 40%
    14:00 +37°C° 0 mm 3 m/s 651 mmHg 37%
    15:00 +37°C° 0,1 mm 3 m/s 651 mmHg 37%
    16:00 +37°C° 0,1 mm 4 m/s 651 mmHg 36%
    17:00 +37°C° 0,1 mm 4 m/s 651 mmHg 35%
    18:00 +35°C° 0,2 mm 3 m/s 651 mmHg 40%
    19:00 +34°C° 0,2 mm 3 m/s 651 mmHg 45%
    20:00 +31°C° 0,2 mm 2 m/s 652 mmHg 50%
    21:00 +31°C° 0,5 mm 2 m/s 652 mmHg 53%
    22:00 +30°C° 0,5 mm 1 m/s 652 mmHg 57%
    23:00 +29°C° 0,5 mm 1 m/s 652 mmHg 60%

    21 Julho, Sábado

    Tempo Temperatura Precipitação Vento Pressão Humidade
    00:00 +29°C° 1,1 mm 1 m/s 652 mmHg 64%
    01:00 +28°C° 1,1 mm 1 m/s 651 mmHg 67%
    02:00 +27°C° 1,1 mm 1 m/s 651 mmHg 71%
    03:00 +27°C° 0,7 mm 1 m/s 651 mmHg 71%
    04:00 +27°C° 0,7 mm 1 m/s 651 mmHg 72%
    05:00 +26°C° 0,7 mm 1 m/s 651 mmHg 72%
    06:00 +27°C° 0,7 mm 1 m/s 651 mmHg 67%
    07:00 +29°C° 0,7 mm 1 m/s 651 mmHg 62%
    08:00 +30°C° 0,7 mm 1 m/s 652 mmHg 57%
    09:00 +31°C° 0,1 mm 2 m/s 652 mmHg 53%
    10:00 +32°C° 0,1 mm 2 m/s 652 mmHg 50%
    11:00 +34°C° 0,1 mm 2 m/s 652 mmHg 46%
    12:00 +35°C° 0 mm 3 m/s 652 mmHg 44%
    13:00 +36°C° 0 mm 3 m/s 652 mmHg 41%
    14:00 +37°C° 0 mm 3 m/s 651 mmHg 39%
    15:00 +37°C° 0,1 mm 3 m/s 651 mmHg 39%
    16:00 +37°C° 0,1 mm 4 m/s 651 mmHg 39%
    17:00 +36°C° 0,1 mm 4 m/s 651 mmHg 38%
    18:00 +35°C° 0,5 mm 3 m/s 651 mmHg 44%
    19:00 +33°C° 0,5 mm 3 m/s 651 mmHg 50%
    20:00 +31°C° 0,5 mm 2 m/s 651 mmHg 56%
    21:00 +30°C° 1,1 mm 2 m/s 652 mmHg 59%
    22:00 +29°C° 1,1 mm 2 m/s 652 mmHg 62%
    23:00 +29°C° 1,1 mm 2 m/s 652 mmHg 66%
    Mostrar mais